Flag for United Kingdom Weather past 2 weeks in Glasgow, Scotland, United Kingdom

Now
61 °F

Partly sunny.


Feels Like: 61 °F
Forecast: 46 / 58 °F
Wind: 9 mph from Northwest

Location: Glasgow Airport

Current Time: Oct 1, 2014 at 3:36:27 PM

Latest Report: Oct 1, 2014 at 3:20 PM


Visibility: N/A

Pressure: 30.21 "Hg

Humidity: 52%

Dew point: 43 °F

Location of GlasgowLocation

Historic Weather in Glasgow — Graph

°F

Glasgow temperature yesterday

Maximum temperature yesterday: 68 °F (at 1:50 PM)
Minimum temperature yesterday: 54 °F (at 3:50 AM)
Average temperature yesterday: 61 °F

Past Weeks' High & Low Weather Summary

 TemperatureHumidityPressure
High68 °F (Sep 30, 1:50 PM)100% (Sep 17, 11:50 PM)30.33 "Hg (Sep 17, 11:50 PM)
Low36 °F (Sep 21, 6:50 AM)49% (Sep 21, 3:20 PM)29.80 "Hg (Sep 23, 11:20 PM)
Average57 °F85%30.05 "Hg
* Reported Sep 16 2:20 PM — Oct 1 2:20 PM, Glasgow, Weather by CustomWeather, © 2014

Note: Actual official high and low records may vary slightly from our data, if they occured in-between our weather recording intervals... More about our weather records

Advertising

Glasgow weather history for previous 24 hours

 ConditionsComfort  
Time TempWeatherWind HumidityBarometerVisibility
2:20 PM
Oct 1
59 °FPassing clouds.13 mph59%30.18 "HgN/A
1:50 PM59 °FPartly sunny.9 mph68%30.18 "HgN/A
1:20 PM57 °FScattered clouds.15 mph67%30.18 "HgN/A
12:50 PM57 °FPassing clouds.10 mph72%30.18 "HgN/A
12:20 PM55 °FPartly sunny.10 mph82%30.18 "HgN/A
11:50 AM54 °FLight rain. Cloudy.9 mph88%30.15 "HgN/A
11:20 AM55 °FLight rain. Scattered clouds.9 mph82%30.15 "HgN/A
10:50 AM55 °FCool.12 mph82%30.12 "HgN/A
10:20 AM55 °FPartly sunny.7 mph82%30.12 "HgN/A
9:50 AM55 °FCool.9 mph88%30.09 "HgN/A
9:20 AM55 °FPartly sunny.8 mph88%30.09 "HgN/A
8:50 AM54 °FOvercast.6 mph94%30.07 "HgN/A
8:20 AM54 °FMore clouds than sun.6 mph94%30.04 "HgN/A
7:50 AM54 °FLight rain. Mostly cloudy.13 mph94%30.04 "HgN/A
7:20 AM55 °FLight rain. Mostly cloudy.12 mph100%30.01 "Hg3 mi
6:50 AM55 °FLight rain. Partly cloudy.15 mph94%30.01 "Hg4 mi
6:20 AM57 °FOvercast.16 mph88%29.98 "HgN/A
5:50 AM55 °FPassing clouds.15 mph94%29.98 "HgN/A
5:20 AM55 °FPassing clouds.6 mph94%29.98 "HgN/A
4:50 AM55 °FPassing clouds.5 mph88%29.98 "HgN/A
4:20 AM54 °FCool.2 mph94%29.98 "HgN/A
3:50 AM54 °FCool.5 mph100%29.98 "HgN/A
3:20 AM55 °FPassing clouds.5 mph94%29.98 "HgN/A
2:50 AM55 °FOvercast.5 mph94%29.98 "HgN/A
2:20 AM57 °FPassing clouds.10 mph88%29.98 "HgN/A
1:50 AM57 °FPassing clouds.9 mph88%29.98 "HgN/A
1:20 AM57 °FPassing clouds.5 mph94%29.98 "HgN/A
12:50 AM59 °FLight rain. Mostly cloudy.12 mph94%29.95 "HgN/A
12:20 AM61 °FDrizzle. Low clouds.8 mph94%29.95 "Hg3 mi
11:50 PM
Sep 30
61 °FLight rain. Passing clouds.8 mph94%29.95 "Hg3 mi
11:20 PM61 °FLight rain. Passing clouds.8 mph94%29.95 "HgN/A
10:50 PM61 °FLight rain. Overcast.6 mph94%29.95 "Hg5 mi
10:20 PM61 °FLight rain. Partly cloudy.9 mph94%29.95 "Hg6 mi
9:50 PM61 °FPassing clouds.9 mph94%29.95 "Hg5 mi
9:20 PM61 °FPassing clouds.8 mph94%29.98 "HgN/A
8:50 PM61 °FLight rain. Passing clouds.9 mph94%29.98 "Hg6 mi
8:20 PM61 °FPartly cloudy.7 mph94%29.98 "Hg3 mi
7:50 PM61 °FDrizzle. Broken clouds.7 mph94%29.98 "Hg2 mi
7:20 PM61 °FDrizzle. Broken clouds.10 mph88%29.98 "Hg3 mi
6:50 PM63 °FBroken clouds.8 mph83%30.01 "HgN/A
6:20 PM64 °FBroken clouds.13 mph78%30.01 "HgN/A
5:50 PM64 °FBroken clouds.8 mph73%30.01 "HgN/A
5:20 PM64 °FBroken clouds.13 mph73%30.01 "HgN/A
4:50 PM66 °FScattered clouds.12 mph68%30.01 "HgN/A
4:20 PM66 °FScattered clouds.15 mph68%30.01 "HgN/A
3:50 PM68 °FPartly sunny.16 mph69%30.04 "HgN/A
3:20 PM66 °FScattered clouds.14 mph68%30.04 "HgN/A
Weather by CustomWeather, © 2014

See weather overviewHow to use our weather pages